TimePDT,TemperatureF,Dew PointF,Humidity,Sea Level PressureIn,VisibilityMPH,Wind Direction,Wind SpeedMPH,Gust SpeedMPH,PrecipitationIn,Events,Conditions,WindDirDegrees,DateUTC
12:53 AM,46.9,39.9,77,29.97,10.0,NNW,4.6,-,N/A,,Clear,340,2013-07-13 07:53:00
1:53 AM,45.0,39.0,80,29.98,10.0,Calm,Calm,-,N/A,,Scattered Clouds,0,2013-07-13 08:53:00
2:53 AM,46.0,39.9,79,29.99,10.0,NNW,3.5,-,N/A,,Overcast,330,2013-07-13 09:53:00
3:53 AM,46.0,41.0,83,30.00,10.0,Calm,Calm,-,N/A,,Overcast,0,2013-07-13 10:53:00
4:53 AM,46.9,42.1,83,30.02,10.0,Calm,Calm,-,N/A,,Overcast,0,2013-07-13 11:53:00
5:53 AM,48.9,42.1,77,30.04,10.0,Calm,Calm,-,N/A,,Overcast,0,2013-07-13 12:53:00
6:53 AM,53.1,45.0,74,30.07,10.0,Calm,Calm,-,N/A,,Overcast,0,2013-07-13 13:53:00
7:53 AM,57.0,44.1,62,30.09,10.0,South,3.5,-,N/A,,Partly Cloudy,170,2013-07-13 14:53:00
8:53 AM,60.1,43.0,53,30.11,10.0,Variable,4.6,-,N/A,,Clear,0,2013-07-13 15:53:00
9:53 AM,64.0,42.1,45,30.12,10.0,SSE,5.8,-,N/A,,Clear,160,2013-07-13 16:53:00
10:53 AM,68.0,42.1,39,30.13,10.0,SSE,8.1,-,N/A,,Clear,160,2013-07-13 17:53:00
11:53 AM,71.1,39.9,32,30.13,10.0,SE,5.8,16.1,N/A,,Clear,140,2013-07-13 18:53:00
12:53 PM,72.0,39.9,31,30.13,10.0,South,9.2,-,N/A,,Scattered Clouds,170,2013-07-13 19:53:00
1:53 PM,73.0,37.9,28,30.13,10.0,SSE,5.8,-,N/A,,Partly Cloudy,160,2013-07-13 20:53:00
2:53 PM,73.9,37.9,27,30.12,10.0,SSE,4.6,-,N/A,,Clear,160,2013-07-13 21:53:00
3:53 PM,75.0,39.0,27,30.11,10.0,South,8.1,-,N/A,,Clear,190,2013-07-13 22:53:00
4:53 PM,75.0,39.0,27,30.10,10.0,WNW,5.8,-,N/A,,Clear,290,2013-07-13 23:53:00
5:53 PM,75.9,39.0,26,30.09,10.0,North,-9999.0,-,N/A,,Clear,0,2013-07-14 00:53:00
6:53 PM,75.0,37.9,26,30.09,10.0,SW,3.5,-,N/A,,Clear,230,2013-07-14 01:53:00
7:53 PM,71.1,46.0,41,30.08,10.0,Calm,Calm,-,N/A,,Clear,0,2013-07-14 02:53:00
8:53 PM,57.9,46.0,65,30.09,10.0,Calm,Calm,-,N/A,,Clear,0,2013-07-14 03:53:00
9:53 PM,55.0,45.0,69,30.10,10.0,NW,3.5,-,N/A,,Clear,310,2013-07-14 04:53:00
10:53 PM,48.0,42.1,80,30.11,9.0,NW,3.5,-,N/A,,Clear,310,2013-07-14 05:53:00
11:53 PM,46.0,41.0,83,30.10,10.0,NNW,3.5,-,N/A,,Clear,330,2013-07-14 06:53:00